Snowfall_Accumulation
0.0 0.0 0.0 0.0 0.0 0.0 0.0 0.0 0.0 0.0 0.0 0.0 0.0 0.0 0.0 0.0 0.0 0.0 0.0 0.0 0.0 0.0 0.0 0.0 0.0 0.0 0.0 0.0 0.0 0.0 0.0 0.0 0.0 0.0 0.0 0.0 0.0 0.0 0.0 0.0 0.0 0.0 0.0 0.0
0.0 0.0 0.0 0.0 0.0 0.0 0.0 0.0 0.0 0.0 0.0 0.0 0.0 0.0 0.0 0.0 0.0 0.0 0.0 0.0 0.0 0.0 0.0 0.0 0.0 0.0 0.0 0.0 0.0 0.0 0.0 0.0 0.0 0.0 0.0 0.0 0.0 0.0 0.0 0.0 0.0 0.0 0.0 0.0
0.0 0.0 0.0 0.0 0.0 0.0 0.0 0.0 0.0 0.0 0.0 0.0 0.0 0.0 0.0 0.0 0.0 0.0 0.0 0.0 0.0 0.0 0.0 0.0 0.0 0.0 0.0 0.0 0.0 0.0 0.0 0.0 0.0 0.0 0.0 0.0 0.0 0.0 0.0 0.0 0.0 0.0 0.0 0.0
0.0 0.0 0.0 0.0 0.0 0.0 0.0 0.0 0.0 0.0 0.0 0.0 0.0 0.0 0.0 0.0 0.0 0.0 0.0 0.0 0.0 0.0 0.0 0.0 0.0 0.0 0.0 0.0 0.0 0.0 0.0 0.0 0.0 0.0 0.0 0.0 0.0 0.0 0.0 0.0 0.0 0.0 0.0 0.0
0.0 0.0 0.0 0.0 0.0 0.0 0.0 0.0 0.0 0.0 0.0 0.0 0.0 0.0 0.0 0.0 0.0 0.0 0.0 0.0 0.0 0.0 0.0 0.0 0.0 0.0 0.0 0.0 0.0 0.0 0.0 0.0 0.0 0.0 0.0 0.0 0.0 0.0 0.0 0.0 0.0 0.0 0.0 0.0
0.0 0.0 0.0 0.0 0.0 0.0 0.0 0.0 0.0 0.0 0.0 0.2 0.0 0.0 0.0 0.0 0.0 0.0 0.0 0.0 0.0 0.0 0.0 0.0 0.0 0.0 0.0 0.0 0.0 0.0 0.0 0.0 0.0 0.0 0.0 0.0 0.0 0.0 0.0 0.0 0.0 0.0 0.0 0.0
0.0 0.0 0.0 0.0 0.0 0.0 0.0 0.0 0.3 0.6 1.7 0.7 0.0 0.1 0.0 0.0 0.0 0.0 0.0 0.0 0.0 0.0 0.0 0.0 0.0 0.0 0.0 0.0 0.0 0.0 0.0 0.0 0.0 0.0 0.0 0.0 0.0 0.0 0.0 0.0 0.0 0.0 0.0 0.0
0.0 0.0 0.0 0.0 0.0 0.0 0.0 0.0 0.6 2.8 1.9 0.5 0.1 0.3 0.0 0.0 0.0 0.0 0.0 0.0 0.0 0.0 0.0 0.0 0.0 0.0 0.0 0.0 0.0 0.0 0.0 0.0 0.0 0.0 0.0 0.0 0.0 0.0 0.0 0.0 0.0 0.0 0.0 0.0
0.0 0.0 0.0 0.0 0.0 0.0 0.0 0.0 0.0 0.2 4.6 3.1 0.0 0.0 0.0 0.0 0.0 0.0 0.0 0.0 0.0 0.0 0.0 0.0 0.0 0.0 0.0 0.0 0.0 0.0 0.0 0.0 0.0 0.0 0.0 0.0 0.0 0.0 0.0 0.0 0.0 0.0 0.0 0.0
0.0 0.0 0.0 0.0 0.0 0.0 0.0 0.0 0.4 0.4 4.9 3.9 0.0 0.0 0.0 0.0 0.0 0.0 0.0 0.0 0.0 0.0 0.0 0.0 0.0 0.0 0.0 0.0 0.0 0.0 0.0 0.0 0.0 0.0 0.0 0.0 0.0 0.0 0.0 0.0 0.0 0.0 0.0 0.0
0.0 0.0 0.1 0.0 0.0 0.0 0.0 0.0 0.0 0.0 0.4 2.5 2.3 0.1 0.0 0.0 0.0 0.0 0.0 0.0 0.0 0.0 0.0 0.0 0.0 0.0 0.0 0.0 0.0 0.0 0.0 0.0 0.0 0.0 0.0 0.0 0.0 0.0 0.0 0.0 0.0 0.0 0.0 0.0
0.0 0.1 3.6 0.1 0.0 0.0 0.0 0.0 0.0 0.8 0.6 0.7 1.5 1.4 0.0 0.0 0.0 0.0 0.0 0.0 0.0 0.0 0.0 0.0 0.0 0.0 0.0 0.0 0.0 0.0 0.0 0.0 0.0 0.0 0.0 0.0 0.0 0.0 0.0 0.0 0.0 0.0 0.0 0.0
0.0 1.1 5.5 3.5 0.1 0.0 0.0 0.0 0.0 0.2 1.1 2.2 5.0 1.0 0.0 0.0 0.0 0.0 0.0 0.0 0.0 0.0 0.0 0.0 0.0 0.0 0.0 0.0 0.0 0.0 0.0 0.0 0.0 0.0 0.0 0.0 0.0 0.0 0.0 0.0 0.0 0.0 0.0 0.0
nan 1.2 2.8 3.2 0.2 0.0 0.6 0.2 0.1 0.6 4.4 2.3 1.5 0.9 0.1 0.0 0.0 0.0 0.0 0.0 0.0 0.0 0.0 0.0 0.0 0.0 0.0 0.0 0.0 0.0 0.0 0.0 0.0 0.0 0.0 0.0 0.0 0.0 0.0 0.0 0.0 0.0 0.0 0.0
0.1 5.3 0.9 1.1 0.5 0.4 0.7 0.8 0.5 0.6 0.3 1.1 0.6 0.2 0.0 0.3 0.2 0.0 0.0 0.0 0.0 0.0 0.0 0.0 0.0 0.0 0.0 0.0 0.0 0.0 0.0 0.0 0.0 0.0 0.0 0.0 0.0 0.0 0.1 0.1 0.1 0.1 0.1 0.1
0.5 6.1 1.4 4.2 0.2 0.3 0.8 0.2 0.1 0.0 0.0 0.0 0.0 0.1 0.2 0.0 0.0 0.0 0.0 0.0 0.0 0.0 0.0 0.0 0.0 0.0 0.0 0.0 0.0 0.0 0.0 0.0 0.0 0.0 0.0 0.1 0.1 0.2 0.2 0.2 0.3 0.2 0.2 0.1
0.9 3.9 8.5 14.0 0.2 0.7 7.1 0.8 0.0 0.0 0.0 0.0 0.4 1.1 1.1 0.2 0.0 0.2 0.4 0.1 0.0 0.0 0.0 0.0 0.0 0.0 0.0 0.0 0.0 0.0 0.0 0.0 0.1 0.2 0.4 0.4 0.3 0.4 0.3 0.2 0.3 0.2 0.2 0.2
1.4 5.7 7.2 19.8 10.0 34.8 2.3 0.0 0.0 0.0 0.5 0.7 1.5 1.6 1.4 0.5 0.0 0.3 0.2 0.1 0.0 0.0 0.0 0.0 0.0 0.0 0.0 0.0 0.0 0.0 0.1 0.1 0.3 0.6 0.9 0.4 0.6 0.8 0.2 0.2 0.3 0.3 0.2 0.3
0.0 0.6 11.1 31.2 17.5 1.7 0.1 0.3 0.1 0.7 1.2 2.0 1.5 0.8 1.0 0.1 0.0 0.0 0.0 0.0 0.0 0.0 0.0 0.0 0.0 0.0 0.0 0.0 0.0 0.2 0.2 0.2 0.4 0.3 0.4 0.2 1.0 2.1 0.5 2.3 0.6 0.5 1.3 0.8
0.1 0.1 2.9 26.1 37.7 28.1 3.1 1.0 0.4 1.1 5.2 2.5 2.7 2.3 1.8 0.3 1.4 0.0 0.0 0.0 0.0 0.0 0.0 0.0 0.0 0.0 0.1 0.1 0.2 0.3 0.2 0.2 0.3 0.3 0.4 0.4 1.3 3.0 2.4 1.3 2.0 2.3 2.2 2.2
5.6 9.6 13.2 13.0 22.7 8.2 1.0 0.3 0.0 5.3 5.3 0.6 0.6 1.6 1.3 2.4 1.0 0.2 0.0 0.0 0.0 0.1 0.1 0.1 0.1 0.1 0.2 0.4 0.6 0.4 0.2 0.3 0.3 0.5 0.6 0.7 1.1 3.2 2.1 2.5 1.9 3.2 3.4 1.8
2.8 10.5 20.9 15.7 22.9 27.1 0.6 0.1 1.3 1.5 0.2 0.3 0.6 0.1 0.2 0.0 0.0 0.0 0.0 0.0 0.0 0.0 0.0 0.0 0.3 0.2 0.3 0.5 1.2 0.5 0.4 0.3 0.6 1.0 1.3 2.2 3.6 3.6 3.6 5.9 3.7 4.8 4.6 4.5
5.4 1.8 8.1 3.6 5.8 0.6 0.9 1.1 0.3 0.2 0.5 0.3 0.2 0.1 0.0 0.1 0.0 0.0 0.0 0.0 0.0 0.0 0.1 0.2 0.4 0.3 0.2 0.4 1.4 2.7 0.6 0.8 1.5 3.6 4.7 5.4 4.8 4.8 5.2 7.7 4.7 5.8 4.8 5.7
0.6 0.3 2.4 2.8 0.2 0.2 0.1 0.0 0.0 0.1 0.1 0.0 0.1 0.1 0.2 0.2 0.2 0.5 0.4 0.2 0.2 0.2 0.3 0.5 0.9 1.0 0.8 0.9 1.1 1.5 1.4 1.7 6.8 7.2 4.6 4.0 4.9 3.8 4.7 5.9 6.5 8.3 6.1 4.8
0.4 0.3 1.0 1.5 0.1 0.0 0.0 0.0 0.1 0.2 0.2 0.2 0.2 0.2 0.1 0.2 0.9 0.5 0.7 0.5 0.3 0.5 0.6 0.8 1.2 1.1 1.3 1.3 1.3 2.1 2.6 3.6 4.7 4.7 3.0 4.4 5.8 6.4 4.4 4.0 8.1 6.4 3.9 8.8
0.0 0.0 0.2 1.7 0.0 0.0 0.0 0.0 0.1 0.1 0.1 0.1 0.2 0.4 0.3 0.4 0.4 0.6 0.6 0.4 0.6 1.2 1.3 1.6 1.6 1.9 2.0 2.4 2.7 3.7 5.6 5.5 5.5 3.4 4.4 4.5 4.5 3.9 4.1 4.5 5.0 nan nan nan
Water_Equivalent
0.00 0.00 0.00 0.00 0.00 0.00 0.00 0.00 0.00 0.00 0.00 0.00 0.00 0.00 0.00 0.00 0.00 0.00 0.00 0.00 0.00 0.00 0.00 0.00 0.00 0.00 0.00 0.00 0.00 0.00 0.00 0.00 0.00 0.00 0.00 0.00 0.00 0.00 0.00 0.00 0.00 0.00 0.00 0.00
0.00 0.00 0.00 0.00 0.00 0.00 0.00 0.00 0.00 0.00 0.00 0.00 0.00 0.00 0.00 0.00 0.00 0.00 0.00 0.00 0.00 0.00 0.00 0.00 0.00 0.00 0.00 0.00 0.00 0.00 0.00 0.00 0.00 0.00 0.00 0.00 0.00 0.00 0.00 0.00 0.00 0.00 0.00 0.00
0.00 0.00 0.00 0.00 0.00 0.00 0.00 0.00 0.00 0.00 0.00 0.00 0.00 0.00 0.00 0.00 0.00 0.00 0.00 0.00 0.00 0.00 0.00 0.00 0.00 0.00 0.00 0.00 0.00 0.00 0.00 0.00 0.00 0.00 0.00 0.00 0.00 0.00 0.00 0.00 0.00 0.00 0.00 0.00
0.00 0.00 0.00 0.00 0.00 0.00 0.00 0.00 0.00 0.00 0.00 0.00 0.00 0.00 0.00 0.00 0.00 0.00 0.00 0.00 0.00 0.00 0.00 0.00 0.00 0.00 0.00 0.00 0.00 0.00 0.00 0.00 0.00 0.00 0.00 0.00 0.00 0.00 0.00 0.00 0.00 0.00 0.00 0.00
0.00 0.00 0.00 0.00 0.00 0.00 0.00 0.00 0.00 0.00 0.00 0.00 0.00 0.00 0.00 0.00 0.00 0.00 0.00 0.00 0.00 0.00 0.00 0.00 0.00 0.00 0.00 0.00 0.00 0.00 0.00 0.00 0.00 0.00 0.00 0.00 0.00 0.00 0.00 0.00 0.00 0.00 0.00 0.00
0.00 0.00 0.00 0.00 0.00 0.00 0.00 0.00 0.00 0.00 0.00 0.04 0.00 0.00 0.00 0.00 0.00 0.00 0.00 0.00 0.00 0.00 0.00 0.00 0.00 0.00 0.00 0.00 0.00 0.00 0.00 0.00 0.00 0.00 0.00 0.00 0.00 0.00 0.00 0.00 0.00 0.00 0.00 0.00
0.00 0.00 0.00 0.00 0.00 0.00 0.00 0.00 0.07 0.12 0.30 0.14 0.00 0.02 0.00 0.00 0.00 0.00 0.00 0.00 0.00 0.00 0.00 0.00 0.00 0.00 0.00 0.00 0.00 0.00 0.00 0.00 0.00 0.00 0.00 0.00 0.00 0.00 0.00 0.00 0.00 0.00 0.00 0.00
0.00 0.00 0.00 0.00 0.00 0.00 0.00 0.00 0.13 0.38 0.31 0.10 0.02 0.05 0.00 0.00 0.00 0.00 0.00 0.00 0.00 0.00 0.00 0.00 0.00 0.00 0.00 0.00 0.00 0.00 0.00 0.00 0.00 0.00 0.00 0.00 0.00 0.00 0.00 0.00 0.00 0.00 0.00 0.00
0.00 0.00 0.00 0.00 0.00 0.00 0.00 0.00 0.00 0.04 0.58 0.49 0.01 0.00 0.00 0.00 0.00 0.00 0.00 0.00 0.00 0.00 0.00 0.00 0.00 0.00 0.00 0.00 0.00 0.00 0.00 0.00 0.00 0.00 0.00 0.00 0.00 0.00 0.00 0.00 0.00 0.00 0.00 0.00
0.00 0.01 0.00 0.00 0.00 0.00 0.00 0.00 0.07 0.09 0.67 0.48 0.00 0.00 0.00 0.00 0.00 0.00 0.00 0.00 0.00 0.00 0.00 0.00 0.00 0.00 0.00 0.00 0.00 0.00 0.00 0.00 0.00 0.00 0.00 0.00 0.00 0.00 0.00 0.00 0.00 0.00 0.00 0.00
0.00 0.00 0.02 0.00 0.00 0.00 0.00 0.00 0.00 0.00 0.09 0.38 0.33 0.03 0.00 0.00 0.00 0.00 0.00 0.00 0.00 0.00 0.00 0.00 0.00 0.00 0.00 0.00 0.00 0.00 0.00 0.00 0.00 0.00 0.00 0.00 0.00 0.00 0.00 0.00 0.00 0.00 0.00 0.00
0.00 0.02 0.55 0.01 0.00 0.00 0.00 0.00 0.00 0.17 0.09 0.12 0.27 0.20 0.00 0.00 0.00 0.00 0.00 0.00 0.00 0.00 0.00 0.00 0.00 0.00 0.00 0.00 0.00 0.00 0.00 0.00 0.00 0.00 0.00 0.00 0.00 0.00 0.00 0.00 0.00 0.00 0.00 0.00
0.00 0.21 0.96 0.58 0.03 0.00 0.00 0.00 0.01 0.03 0.18 0.33 0.74 0.16 0.00 0.00 0.00 0.00 0.00 0.00 0.00 0.00 0.00 0.00 0.00 0.00 0.00 0.00 0.00 0.00 0.00 0.00 0.00 0.00 0.00 0.00 0.00 0.00 0.00 0.00 0.00 0.00 0.01 0.01
nan 0.25 0.45 0.49 0.04 0.00 0.09 0.03 0.02 0.09 0.63 0.39 0.24 0.14 0.01 0.00 0.00 0.00 0.00 0.00 0.00 0.00 0.00 0.00 0.00 0.00 0.00 0.00 0.00 0.00 0.00 0.00 0.00 0.00 0.00 0.00 0.00 0.00 0.00 0.00 0.01 0.01 0.01 0.01
0.02 0.88 0.18 0.19 0.08 0.08 0.11 0.14 0.09 0.09 0.05 0.15 0.09 0.03 0.01 0.04 0.03 0.00 0.00 0.00 0.00 0.00 0.00 0.00 0.00 0.00 0.00 0.00 0.00 0.00 0.00 0.00 0.00 0.00 0.00 0.00 0.00 0.01 0.01 0.01 0.02 0.02 0.01 0.01
0.08 1.00 0.24 0.72 0.04 0.07 0.14 0.03 0.02 0.01 0.00 0.00 0.01 0.02 0.03 0.00 0.00 0.00 0.00 0.00 0.00 0.00 0.00 0.00 0.00 0.00 0.00 0.00 0.00 0.00 0.00 0.00 0.00 0.00 0.01 0.01 0.02 0.04 0.03 0.04 0.06 0.03 0.03 0.03
0.17 0.82 1.32 1.91 0.05 0.11 0.89 0.15 0.00 0.00 0.00 0.00 0.09 0.14 0.19 0.03 0.00 0.04 0.05 0.01 0.00 0.00 0.00 0.00 0.00 0.00 0.00 0.00 0.00 0.00 0.00 0.00 0.02 0.03 0.07 0.07 0.05 0.07 0.05 0.04 0.06 0.04 0.04 0.05
0.31 1.10 1.44 2.83 1.47 3.69 0.43 0.00 0.00 0.00 0.05 0.08 0.17 0.21 0.20 0.06 0.00 0.04 0.03 0.01 0.00 0.00 0.00 0.00 0.00 0.00 0.00 0.00 0.00 0.00 0.01 0.02 0.04 0.10 0.17 0.07 0.09 0.13 0.04 0.04 0.05 0.04 0.03 0.04
0.01 0.14 1.57 3.78 2.19 0.29 0.02 0.04 0.01 0.07 0.13 0.23 0.17 0.10 0.14 0.01 0.00 0.00 0.01 0.01 0.00 0.00 0.00 0.00 0.00 0.00 0.00 0.00 0.01 0.02 0.04 0.04 0.06 0.05 0.06 0.04 0.16 0.29 0.08 0.34 0.08 0.06 0.20 0.13
0.03 0.03 0.51 3.29 4.24 3.00 0.33 0.13 0.07 0.17 0.53 0.35 0.40 0.32 0.23 0.05 0.17 0.00 0.00 0.00 0.01 0.00 0.00 0.00 0.00 0.01 0.01 0.01 0.02 0.04 0.02 0.03 0.04 0.04 0.05 0.05 0.17 0.41 0.31 0.18 0.28 0.36 0.34 0.33
0.69 1.23 1.65 1.80 2.78 1.25 0.20 0.06 0.00 0.63 0.50 0.09 0.11 0.24 0.18 0.31 0.14 0.03 0.01 0.00 0.01 0.01 0.01 0.01 0.02 0.02 0.02 0.04 0.06 0.05 0.03 0.04 0.03 0.05 0.05 0.08 0.14 0.43 0.28 0.34 0.29 0.41 0.47 0.25
0.35 1.12 2.37 1.82 2.54 3.00 0.10 0.02 0.13 0.18 0.03 0.06 0.10 0.01 0.04 0.01 0.00 0.00 0.00 0.00 0.00 0.00 0.00 0.01 0.03 0.02 0.03 0.06 0.11 0.06 0.05 0.03 0.06 0.10 0.13 0.28 0.49 0.47 0.49 0.86 0.52 0.71 0.64 0.63
0.63 0.23 0.90 0.46 0.86 0.13 0.18 0.18 0.05 0.03 0.10 0.06 0.03 0.01 0.00 0.02 0.01 0.00 0.00 0.00 0.00 0.00 0.02 0.03 0.04 0.04 0.03 0.05 0.14 0.24 0.06 0.08 0.15 0.52 0.74 0.75 0.67 0.67 0.68 1.04 0.61 0.86 0.73 0.87
0.12 0.08 0.38 0.38 0.04 0.04 0.01 0.00 0.01 0.03 0.02 0.01 0.02 0.02 0.04 0.03 0.02 0.08 0.06 0.03 0.02 0.03 0.04 0.06 0.11 0.12 0.08 0.10 0.12 0.14 0.13 0.17 1.13 1.08 0.57 0.48 0.61 0.49 0.60 0.82 0.94 1.27 0.93 0.73
0.10 0.08 0.24 0.30 0.03 0.01 0.01 0.01 0.02 0.03 0.04 0.04 0.04 0.03 0.02 0.03 0.12 0.08 0.09 0.07 0.04 0.05 0.07 0.08 0.13 0.10 0.12 0.11 0.12 0.19 0.21 0.39 0.64 0.68 0.34 0.54 0.81 0.91 0.56 0.49 0.82 0.70 0.44 1.01
0.00 0.00 0.04 0.23 0.00 0.00 0.01 0.00 0.01 0.03 0.02 0.01 0.03 0.06 0.04 0.06 0.06 0.07 0.07 0.04 0.07 0.11 0.12 0.14 0.15 0.16 0.14 0.18 0.21 0.30 0.58 0.60 0.63 0.38 0.57 0.58 0.58 0.54 0.52 0.54 0.54 nan nan nan
SL_Ratio
nan nan nan nan nan nan nan nan nan nan nan nan nan nan nan nan nan nan nan nan nan nan nan nan nan nan nan nan nan nan nan nan nan nan nan nan nan nan nan nan nan nan nan nan
nan nan nan nan nan nan nan nan nan nan nan nan nan nan nan nan nan nan nan nan nan nan nan nan nan nan nan nan nan nan nan nan nan nan nan nan nan nan nan nan nan nan nan nan
nan nan nan nan nan nan nan nan nan nan nan nan nan nan nan nan nan nan nan nan nan nan nan nan nan nan nan nan nan nan nan nan nan nan nan nan nan nan nan nan nan nan nan nan
nan nan nan nan nan nan nan nan nan nan nan nan nan 5.0 nan nan nan nan nan nan nan nan nan nan nan nan nan nan nan nan nan nan nan nan nan nan nan nan nan nan nan nan nan nan
nan nan nan nan nan nan nan nan nan nan nan nan nan nan nan nan nan nan nan nan nan nan nan nan nan nan nan nan nan nan nan nan nan nan nan nan nan nan nan nan nan nan nan nan
nan nan nan nan nan nan nan nan nan nan nan 5.3 nan nan nan nan nan nan nan nan nan nan nan nan nan nan nan nan nan nan nan nan nan nan nan nan nan nan nan nan nan nan nan nan
nan nan nan nan nan nan nan nan 5.0 5.2 5.6 5.2 nan 5.0 nan nan nan nan nan nan nan nan nan nan nan nan nan nan nan nan nan nan nan nan nan nan nan nan nan nan nan nan nan nan
nan nan nan nan nan nan nan nan 4.9 7.4 6.0 4.8 5.2 5.6 4.0 nan nan nan nan nan nan nan nan nan nan nan nan nan nan nan nan nan nan nan nan nan nan nan nan nan nan nan nan nan
4.0 3.8 nan nan nan nan nan nan nan 5.4 7.9 6.4 3.9 nan nan nan nan nan nan nan nan nan nan nan nan nan nan nan nan nan nan nan nan nan nan nan nan nan nan nan nan nan nan nan
nan 4.2 nan nan nan nan nan nan 5.3 5.0 7.3 8.2 nan nan nan nan nan nan nan nan nan nan nan nan nan nan nan nan nan nan nan nan nan nan nan nan nan nan nan nan nan nan nan nan
nan 5.0 3.8 nan nan nan nan nan nan nan 5.0 6.6 7.0 5.6 nan nan nan nan nan nan nan nan nan nan nan nan nan nan nan nan nan nan nan nan nan nan nan nan nan nan nan nan nan nan
nan 5.5 6.5 5.7 nan nan nan nan nan 5.1 6.3 5.6 5.5 6.8 nan nan nan nan nan nan nan nan nan nan nan nan nan nan nan nan nan nan nan nan nan nan nan nan nan nan nan nan nan 10.0
nan 5.3 5.7 6.0 4.3 0.0 5.0 nan 6.1 6.3 6.1 6.7 6.8 6.4 nan nan nan nan nan nan nan nan nan nan nan nan nan nan nan nan nan nan nan nan nan nan nan nan nan nan nan 3.8 4.0 3.7
nan 4.9 6.1 6.5 6.3 6.0 6.5 6.7 6.1 6.8 6.9 6.0 6.2 6.7 5.5 5.0 5.0 nan nan nan nan nan nan nan nan nan nan nan nan nan nan nan nan nan nan nan nan nan nan 3.3 4.1 4.1 3.9 4.2
4.4 6.0 5.1 5.7 5.7 5.4 6.1 6.0 5.9 6.5 6.2 7.5 6.4 6.4 5.5 7.2 6.7 5.0 nan nan nan nan nan nan nan nan nan nan nan nan nan nan nan nan nan nan 4.0 4.0 4.1 4.4 4.5 4.9 5.0 5.0
6.5 6.1 5.8 5.8 5.0 4.5 5.5 5.4 6.0 5.6 5.0 5.0 3.3 3.7 7.7 6.7 nan nan 6.2 nan 5.0 6.7 5.0 nan nan nan nan nan nan nan nan nan 3.6 3.6 4.0 4.3 4.7 4.9 5.0 5.3 5.5 5.7 5.6 5.4
5.0 4.8 6.4 7.3 5.0 5.9 8.0 5.2 5.6 nan 10.0 10.0 4.2 7.5 5.6 6.8 6.7 6.8 6.7 6.4 6.2 6.4 nan nan nan nan nan nan nan nan nan 5.0 5.1 5.9 5.2 5.2 5.4 5.7 5.6 5.5 5.5 5.6 5.4 5.4
4.6 5.2 5.0 7.0 6.8 9.4 5.5 nan nan 6.7 10.0 9.2 8.5 7.7 7.2 7.3 7.3 6.3 6.1 6.4 5.0 nan nan nan nan nan nan nan nan 4.0 4.9 5.7 6.3 5.9 5.4 5.8 6.2 6.5 6.0 5.9 6.0 6.5 7.1 6.7
3.6 4.3 7.1 8.3 8.0 5.6 5.5 8.4 8.4 8.9 9.1 8.8 8.6 7.7 7.3 6.7 5.0 5.6 5.0 5.8 6.7 nan nan nan nan nan nan 5.0 5.3 7.4 6.7 6.5 6.6 6.0 6.5 6.1 6.6 7.2 7.3 6.9 7.7 8.2 6.7 6.4
4.6 4.5 5.6 7.9 8.9 9.4 9.6 7.7 6.3 6.6 9.7 7.3 6.9 7.4 7.6 6.9 8.0 8.6 nan 6.3 6.1 6.3 5.0 7.5 nan 5.0 5.5 5.9 7.4 7.3 8.1 7.7 8.0 8.3 8.3 8.3 7.5 7.4 7.6 7.1 7.3 6.5 6.3 6.7
8.1 7.8 8.0 7.2 8.1 6.6 5.2 5.2 3.3 8.4 10.6 6.6 5.8 6.8 7.1 7.8 7.2 6.4 5.6 5.7 6.5 6.4 6.9 6.7 5.7 7.1 7.7 9.5 8.8 8.4 7.7 9.6 10.0 10.9 10.6 8.9 8.1 7.3 7.7 7.4 6.6 7.6 7.2 7.2
8.2 9.3 8.8 8.6 9.0 9.0 5.9 6.6 9.6 8.4 6.4 5.0 6.0 5.6 5.8 5.7 5.4 6.7 nan 5.0 6.7 5.0 6.7 6.3 8.0 7.6 8.7 8.4 10.4 8.8 7.9 9.3 10.6 10.4 10.0 7.8 7.4 7.6 7.4 6.8 7.1 6.8 7.2 7.2
8.6 7.9 9.0 7.8 6.8 4.8 5.0 6.3 5.5 5.5 5.3 5.9 5.4 5.9 5.0 6.6 6.5 5.0 4.3 5.6 5.7 5.0 5.7 6.5 8.2 7.9 7.3 8.3 10.0 11.3 9.9 10.4 9.7 7.0 6.4 7.1 7.3 7.2 7.7 7.4 7.7 6.8 6.6 6.5
5.2 3.9 6.3 7.3 5.5 5.7 5.2 4.7 5.0 5.4 5.6 5.7 4.6 5.5 5.9 7.8 7.7 5.8 5.9 6.7 6.8 6.6 7.7 8.6 8.6 8.2 9.5 9.0 9.2 11.1 11.3 9.8 6.0 6.6 7.9 8.3 8.0 7.6 7.9 7.2 6.9 6.5 6.5 6.6
4.3 3.6 4.2 5.0 4.2 4.2 4.8 5.3 5.5 5.2 5.2 5.6 5.7 5.7 6.8 7.3 7.3 6.5 7.6 7.2 7.9 9.4 9.4 9.2 9.8 10.8 11.0 11.5 11.6 11.5 12.0 9.2 7.3 6.9 8.9 8.1 7.1 7.1 7.9 8.2 9.9 9.1 8.8 8.7
10.0 5.0 5.5 7.2 nan 4.2 4.2 6.0 4.1 4.9 5.8 5.3 6.5 7.4 6.6 6.0 7.7 8.9 8.2 7.9 8.6 10.6 10.6 10.9 10.7 12.2 14.2 13.4 12.8 12.4 9.6 9.1 8.8 8.9 7.8 7.8 7.7 7.3 7.8 8.3 9.4 nan nan nan